COSMOS 2310

Satellite information

Favourite Embed

Satellite Type and Status

PAYLOADIN ORBIT

Key statistics

Satellite COSMOS 2310 at a glance.

Uptime

11226

Days in orbit

Revolutions

≈ 13.7

Per day

Orbit

LEO

Low Earth Orbit

Inclination

82.9

Latest

Satellite identification and parameters

Extended collection of information and parameters for COSMOS 2310.

Object identification

Identified? True

Debris? False

Object name: COSMOS 2310

International designator: 1995-012A

Object number (NORAD): 23526

Object ID (CCSDS): 23526

Country: COMMONWEALTH OF INDEPENDENT STATES (CIS)

Current information (Y/N): Y

RCS size: LARGE

Orbital parameters

Period: 104.932 minutes

Inclination: 82.9463 deg

SMA: 7369.415 km

Apoapsis: 1008.791 km

Periapsis: 973.768 km

RAAN: 285.6307 deg

Eccentricy: 0.0023762

Argument of periapsis: 89.1441 deg

Mean anomaly: 84.0846 deg

Mean motion: 13.72313296 rev/day

Mean motion (dot): 0.00000107 rev/day2

B* drag term: 0.00010025271 1/REarth

Two-line elements (TLE)

Creation date: Dec. 14, 2025, 3:07 a.m.

Reference frame: TEME

Reference center: EARTH

Epoch: Dec. 13, 2025, 2:09 p.m. UTC

TLE line 0: 0 COSMOS 2310

TLE line 1: 1 23526U 95012A 25347.58971948 .00000107 00000-0 10025-3 0 9996

TLE line 2: 2 23526 82.9463 285.6307 0023762 89.1441 84.0846 13.72313296538463

Live tracking on map

Real-time ground track for satellite COSMOS 2310.

In-orbit conjunctions

A list of the most updated potential collisions computed for object COSMOS 2310.

Target Orbit TCA Probability of collision Miss distance Type
FENGYUN 1C DEB SSO 2024-07-14 06:08:06 0.0004375006 437.0 (m) DEBRIS

Associated space launch

There is no information available about the launch of this satellite, yet. Check back as we update our databases every day.

Latest news about this satellite

There are no fresh news available about this satellite. Check back as we update our databases every day.


Newsletter sign-up

Weekly statistics, charts and insights to help you stay on top of the space industry.